| time (UTC) | temp F | wind direction | speed knots | gust knots | rain 1hr in | rain 24hr in | rain mn in | humidity % | barometer mb |
| 20260507191000 | 68 | 0.0 | 0.0 | 0.00 | 0.16 | 0.13 | 28 | 1005.4 | |
| 20260507190500 | 67 | 0.0 | 0.0 | 0.00 | 0.16 | 0.13 | 28 | 1005.5 | |
| 20260507190001 | 67 | 0.0 | 0.0 | 0.00 | 0.20 | 0.13 | 25 | 1005.5 | |
| 20260507185500 | 68 | 0.0 | 0.0 | 0.00 | 0.20 | 0.13 | 26 | 1005.6 | |
| 20260507185000 | 68 | 0.0 | 0.0 | 0.00 | 0.20 | 0.13 | 30 | 1005.6 | |
| 20260507184500 | 68 | 0.0 | 0.0 | 0.00 | 0.20 | 0.13 | 30 | 1005.7 | |
| 20260507184000 | 67 | 0.0 | 0.0 | 0.00 | 0.20 | 0.13 | 32 | 1005.7 | |
| 20260507183500 | 67 | 0.0 | 0.0 | 0.00 | 0.20 | 0.13 | 30 | 1005.6 | |
| 20260507183000 | 67 | 0.0 | 0.0 | 0.00 | 0.20 | 0.13 | 31 | 1005.7 | |
| 20260507182500 | 67 | 0.0 | 0.0 | 0.00 | 0.20 | 0.13 | 30 | 1005.7 | |
| 20260507181500 | 68 | 0.0 | 0.0 | 0.00 | 0.20 | 0.13 | 30 | 1005.8 | |
| 20260507181000 | 67 | 0.0 | 0.0 | 0.00 | 0.20 | 0.13 | 32 | 1005.7 | |
| 20260507180500 | 67 | 0.0 | 0.0 | 0.00 | 0.20 | 0.13 | 31 | 1005.6 | |
| 20260507180000 | 67 | 0.0 | 0.0 | 0.00 | 0.20 | 0.13 | 35 | 1005.8 | |
| 20260507175500 | 66 | 0.0 | 0.0 | 0.00 | 0.20 | 0.13 | 34 | 1006.0 | |
| 20260507174500 | 67 | 0.0 | 0.0 | 0.00 | 0.20 | 0.13 | 31 | 1005.9 | |
| 20260507174000 | 66 | 0.0 | 0.0 | 0.00 | 0.20 | 0.13 | 33 | 1006.0 | |
| 20260507173500 | 66 | 0.0 | 0.0 | 0.00 | 0.20 | 0.13 | 32 | 1006.0 | |
| 20260507173000 | 66 | 0.0 | 0.0 | 0.00 | 0.20 | 0.13 | 37 | 1006.2 | |
| 20260507172500 | 66 | 0.0 | 0.0 | 0.00 | 0.20 | 0.13 | 33 | 1006.0 | |
| 20260507172000 | 66 | 0.0 | 0.0 | 0.00 | 0.20 | 0.13 | 31 | 1006.0 | |
| 20260507171500 | 65 | 0.0 | 0.0 | 0.00 | 0.20 | 0.13 | 33 | 1006.1 | |
| 20260507171000 | 65 | 0.0 | 0.0 | 0.00 | 0.20 | 0.13 | 32 | 1006.2 | |
| 20260507170500 | 65 | 0.0 | 0.0 | 0.00 | 0.20 | 0.13 | 38 | 1006.2 | |
| 20260507170000 | 65 | 0.0 | 0.0 | 0.00 | 0.20 | 0.13 | 38 | 1006.3 | |
| 20260507165500 | 65 | 0.0 | 0.0 | 0.00 | 0.20 | 0.13 | 38 | 1006.3 | |
| 20260507164500 | 64 | 0.0 | 0.0 | 0.00 | 0.20 | 0.13 | 42 | 1006.6 | |
| 20260507164000 | 64 | 0.0 | 0.0 | 0.00 | 0.20 | 0.13 | 39 | 1006.4 | |
| 20260507163500 | 63 | 0.0 | 0.0 | 0.00 | 0.20 | 0.13 | 38 | 1006.4 | |
| 20260507162500 | 63 | 0.0 | 0.0 | 0.00 | 0.20 | 0.13 | 46 | 1006.5 | |
| 20260507162000 | 63 | 0.0 | 0.0 | 0.00 | 0.20 | 0.13 | 42 | 1006.5 | |
| 20260507161000 | 63 | 0.0 | 0.0 | 0.00 | 0.20 | 0.13 | 40 | 1006.4 | |
| 20260507160500 | 63 | 0.0 | 0.0 | 0.00 | 0.20 | 0.13 | 47 | 1006.6 | |
| 20260507160000 | 62 | 0.0 | 0.0 | 0.00 | 0.20 | 0.13 | 45 | 1006.6 | |
| 20260507155500 | 62 | 0.0 | 0.0 | 0.00 | 0.20 | 0.13 | 51 | 1006.8 | |
| 20260507155000 | 62 | 0.0 | 0.0 | 0.00 | 0.20 | 0.13 | 45 | 1006.7 | |
| 20260507154500 | 61 | 0.0 | 0.0 | 0.00 | 0.20 | 0.13 | 48 | 1006.9 | |
| 20260507154000 | 61 | 0.0 | 0.0 | 0.00 | 0.20 | 0.13 | 51 | 1006.8 | |
| 20260507153000 | 59 | 0.0 | 0.0 | 0.00 | 0.20 | 0.13 | 52 | 1006.8 | |
| 20260507152000 | 59 | 0.0 | 0.0 | 0.00 | 0.20 | 0.13 | 56 | 1007.1 | |
| 20260507150500 | 59 | 0.0 | 0.0 | 0.00 | 0.20 | 0.13 | 57 | 1007.0 | |
| 20260507150000 | 58 | 0.0 | 0.0 | 0.00 | 0.20 | 0.13 | 59 | 1007.2 | |
| 20260507145000 | 59 | 0.0 | 0.0 | 0.00 | 0.20 | 0.13 | 54 | 1007.2 | |
| 20260507144500 | 59 | 0.0 | 0.0 | 0.00 | 0.20 | 0.13 | 60 | 1007.2 | |
| 20260507144000 | 58 | 0.0 | 0.0 | 0.00 | 0.20 | 0.13 | 59 | 1007.3 | |
| 20260507143500 | 58 | 0.0 | 0.0 | 0.00 | 0.20 | 0.13 | 60 | 1007.4 | |
| 20260507142500 | 58 | 0.0 | 0.0 | 0.00 | 0.20 | 0.13 | 62 | 1007.4 | |
| 20260507142000 | 57 | 0.0 | 0.0 | 0.00 | 0.20 | 0.13 | 64 | 1007.3 | |
| 20260507141500 | 57 | 0.0 | 0.0 | 0.00 | 0.20 | 0.13 | 66 | 1007.5 | |
| 20260507141000 | 56 | 0.0 | 0.0 | 0.00 | 0.20 | 0.13 | 64 | 1007.5 | |
| 20260507140500 | 56 | 0.0 | 0.0 | 0.00 | 0.20 | 0.13 | 60 | 1007.6 | |
| 20260507140000 | 56 | 0.0 | 0.0 | 0.00 | 0.20 | 0.13 | 62 | 1007.5 | |
| 20260507135500 | 56 | 0.0 | 0.0 | 0.00 | 0.20 | 0.13 | 63 | 1007.7 | |
| 20260507135000 | 55 | 0.0 | 0.0 | 0.00 | 0.20 | 0.13 | 67 | 1007.5 | |
| 20260507134000 | 54 | 0.0 | 0.0 | 0.00 | 0.20 | 0.13 | 70 | 1007.6 | |
| 20260507133500 | 54 | 0.0 | 0.0 | 0.00 | 0.20 | 0.13 | 72 | 1007.4 | |
| 20260507133000 | 54 | 0.0 | 0.0 | 0.00 | 0.20 | 0.13 | 73 | 1007.5 | |
| 20260507132500 | 54 | 0.0 | 0.0 | 0.00 | 0.20 | 0.13 | 77 | 1007.7 | |
| 20260507132000 | 53 | 0.0 | 0.0 | 0.00 | 0.20 | 0.13 | 78 | 1007.5 | |
| 20260507131500 | 53 | 0.0 | 0.0 | 0.00 | 0.20 | 0.13 | 79 | 1007.6 | |
| 20260507131000 | 53 | 0.0 | 0.0 | 0.00 | 0.20 | 0.13 | 80 | 1007.8 | |
| 20260507130500 | 52 | 0.0 | 0.0 | 0.00 | 0.20 | 0.13 | 81 | 1007.8 | |
| 20260507130000 | 52 | 0.0 | 0.0 | 0.00 | 0.20 | 0.13 | 84 | 1007.8 | |
| 20260507125500 | 51 | 0.0 | 0.0 | 0.00 | 0.20 | 0.13 | 85 | 1007.7 | |
| 20260507125000 | 51 | 0.0 | 0.0 | 0.00 | 0.20 | 0.13 | 88 | 1007.8 | |
| 20260507124500 | 51 | 0.0 | 0.0 | 0.00 | 0.20 | 0.13 | 86 | 1008.1 | |
| 20260507124000 | 51 | 0.0 | 0.0 | 0.00 | 0.20 | 0.13 | 87 | 1008.0 | |
| 20260507122500 | 51 | 0.0 | 0.0 | 0.00 | 0.20 | 0.13 | 90 | 1008.0 | |
| 20260507122000 | 50 | 0.0 | 0.0 | 0.00 | 0.20 | 0.13 | 91 | 1007.8 | |
| 20260507121500 | 50 | 0.0 | 0.0 | 0.00 | 0.20 | 0.13 | 92 | 1007.9 | |
| 20260507121000 | 50 | 0.0 | 0.0 | 0.00 | 0.20 | 0.13 | 91 | 1008.0 | |
| 20260507120500 | 50 | 0.0 | 0.0 | 0.00 | 0.20 | 0.13 | 93 | 1007.8 | |
| 20260507120000 | 50 | 0.0 | 0.0 | 0.00 | 0.20 | 0.13 | 91 | 1007.8 | |
| 20260507115500 | 50 | 0.0 | 0.0 | 0.00 | 0.20 | 0.13 | 91 | 1007.7 | |
| 20260507115000 | 49 | 0.0 | 0.0 | 0.00 | 0.20 | 0.13 | 92 | 1008.0 | |
| 20260507114500 | 49 | 0.0 | 0.0 | 0.00 | 0.20 | 0.13 | 92 | 1007.8 | |
| 20260507114000 | 49 | 0.0 | 0.0 | 0.00 | 0.20 | 0.13 | 93 | 1007.9 | |
| 20260507113500 | 49 | 0.0 | 0.0 | 0.00 | 0.20 | 0.13 | 92 | 1007.8 | |
| 20260507113000 | 49 | 0.0 | 0.0 | 0.00 | 0.20 | 0.13 | 92 | 1007.7 | |
| 20260507112500 | 49 | 0.0 | 0.0 | 0.00 | 0.20 | 0.13 | 92 | 1007.6 | |
| 20260507112000 | 49 | 0.0 | 0.0 | 0.00 | 0.20 | 0.13 | 93 | 1007.7 | |
| 20260507111500 | 49 | 0.0 | 0.0 | 0.00 | 0.20 | 0.13 | 92 | 1007.7 | |
| 20260507111000 | 49 | 0.0 | 0.0 | 0.00 | 0.20 | 0.13 | 92 | 1007.7 | |
| 20260507110500 | 49 | 0.0 | 0.0 | 0.00 | 0.20 | 0.13 | 92 | 1007.5 | |
| 20260507110000 | 49 | 0.0 | 0.0 | 0.00 | 0.20 | 0.13 | 92 | 1007.4 | |
| 20260507105000 | 49 | 0.0 | 0.0 | 0.01 | 0.20 | 0.13 | 92 | 1007.5 | |
| 20260507104500 | 49 | 0.0 | 0.0 | 0.01 | 0.20 | 0.13 | 92 | 1007.5 | |
| 20260507104000 | 49 | 0.0 | 0.0 | 0.02 | 0.20 | 0.13 | 92 | 1007.8 | |
| 20260507103000 | 49 | 0.0 | 0.0 | 0.02 | 0.20 | 0.13 | 93 | 1007.7 | |
| 20260507102500 | 49 | 0.0 | 0.0 | 0.03 | 0.20 | 0.13 | 93 | 1007.5 | |
| 20260507102000 | 49 | 0.0 | 0.0 | 0.03 | 0.20 | 0.13 | 92 | 1007.4 | |
| 20260507101500 | 49 | 0.0 | 0.0 | 0.04 | 0.20 | 0.13 | 93 | 1007.2 | |
| 20260507101000 | 49 | 0.0 | 0.0 | 0.05 | 0.20 | 0.13 | 93 | 1007.0 | |
| 20260507100500 | 48 | 0.0 | 0.0 | 0.06 | 0.19 | 0.13 | 92 | 1007.1 | |
| 20260507100000 | 48 | 0.0 | 0.0 | 0.07 | 0.19 | 0.13 | 92 | 1007.1 | |
| 20260507095500 | 49 | 0.0 | 0.0 | 0.08 | 0.19 | 0.13 | 92 | 1007.0 | |
| 20260507095000 | 49 | 0.0 | 0.0 | 0.09 | 0.19 | 0.12 | 92 | 1006.9 | |
| 20260507094000 | 49 | 0.0 | 0.0 | 0.09 | 0.18 | 0.11 | 90 | 1007.0 | |
| 20260507093500 | 49 | 0.0 | 0.0 | 0.08 | 0.18 | 0.11 | 90 | 1006.9 | |
| 20260507093000 | 49 | 0.0 | 0.0 | 0.08 | 0.17 | 0.10 | 89 | 1007.0 | |
| 20260507092500 | 49 | 0.0 | 0.0 | 0.07 | 0.16 | 0.10 | 90 | 1006.9 | |
| 20260507091500 | 49 | 0.0 | 0.0 | 0.07 | 0.16 | 0.09 | 90 | 1007.0 | |
| 20260507091000 | 49 | 0.0 | 0.0 | 0.06 | 0.15 | 0.08 | 89 | 1007.2 | |
| 20260507090500 | 49 | 0.0 | 0.0 | 0.05 | 0.13 | 0.06 | 89 | 1007.3 | |
| 20260507090000 | 49 | 0.0 | 0.0 | 0.04 | 0.12 | 0.05 | 88 | 1007.4 | |
| 20260507084500 | 50 | 0.0 | 0.0 | 0.02 | 0.10 | 0.03 | 87 | 1007.1 | |
| 20260507084000 | 50 | 0.0 | 0.0 | 0.02 | 0.09 | 0.03 | 87 | 1007.3 | |
| 20260507082500 | 51 | 0.0 | 0.0 | 0.03 | 0.09 | 0.03 | 86 | 1007.1 | |
| 20260507082000 | 51 | 0.0 | 0.0 | 0.02 | 0.09 | 0.02 | 87 | 1006.9 | |
| 20260507081000 | 51 | 0.0 | 0.0 | 0.02 | 0.08 | 0.02 | 85 | 1006.8 | |
| 20260507080500 | 51 | 0.0 | 0.0 | 0.02 | 0.08 | 0.02 | 86 | 1007.0 | |
| 20260507080000 | 52 | 0.0 | 0.0 | 0.02 | 0.08 | 0.02 | 85 | 1007.2 | |
| 20260507075500 | 52 | 0.0 | 0.0 | 0.02 | 0.08 | 0.02 | 84 | 1006.9 | |
| 20260507075000 | 52 | 0.0 | 0.0 | 0.01 | 0.08 | 0.01 | 84 | 1007.0 | |
| 20260507074500 | 53 | 0.0 | 0.0 | 0.01 | 0.08 | 0.01 | 83 | 1006.9 | |
| 20260507074000 | 53 | 0.0 | 0.0 | 0.01 | 0.08 | 0.01 | 82 | 1006.6 | |
| 20260507073500 | 53 | 0.0 | 0.0 | 0.00 | 0.07 | 0.00 | 81 | 1006.7 | |
| 20260507073000 | 54 | 0.0 | 0.0 | 0.00 | 0.07 | 0.00 | 80 | 1006.7 | |
| 20260507072000 | 54 | 0.0 | 0.0 | 0.00 | 0.07 | 0.00 | 81 | 1006.3 | |
| 20260507071500 | 54 | 0.0 | 0.0 | 0.00 | 0.07 | 0.00 | 82 | 1005.8 | |
| 20260507071000 | 54 | 0.0 | 0.0 | 0.00 | 0.07 | 0.00 | 82 | 1005.8 | |
| 20260507070000 | 55 | 0.0 | 0.0 | 0.00 | 0.07 | 0.00 | 82 | 1006.1 | |
| 20260507065500 | 55 | 0.0 | 0.0 | 0.00 | 0.07 | 0.00 | 81 | 1006.0 | |
| 20260507065000 | 55 | 0.0 | 0.0 | 0.00 | 0.07 | 0.00 | 81 | 1006.0 | |
| 20260507064500 | 55 | 0.0 | 0.0 | 0.00 | 0.07 | 0.00 | 81 | 1006.0 | |
| 20260507064000 | 55 | 0.0 | 0.0 | 0.00 | 0.07 | 0.00 | 82 | 1006.0 | |
| 20260507063000 | 56 | 0.0 | 0.0 | 0.00 | 0.07 | 0.00 | 82 | 1006.1 | |
| 20260507062500 | 56 | 0.0 | 0.0 | 0.00 | 0.07 | 0.00 | 82 | 1006.2 | |
| 20260507061502 | 56 | 0.0 | 0.0 | 0.00 | 0.07 | 0.00 | 82 | 1006.0 | |
| 20260507061000 | 56 | 0.0 | 0.0 | 0.00 | 0.07 | 0.00 | 83 | 1005.8 | |
| 20260507060500 | 56 | 0.0 | 0.0 | 0.00 | 0.07 | 0.00 | 83 | 1005.9 | |
| 20260507055500 | 56 | 0.0 | 0.0 | 0.00 | 0.07 | 0.00 | 82 | 1006.0 | |
| 20260507055000 | 57 | 0.0 | 0.0 | 0.00 | 0.07 | 0.00 | 83 | 1006.1 | |
| 20260507054500 | 57 | 0.0 | 0.0 | 0.00 | 0.07 | 0.00 | 83 | 1006.1 | |
| 20260507053500 | 57 | 0.0 | 0.0 | 0.00 | 0.07 | 0.00 | 84 | 1006.5 | |
| 20260507053000 | 57 | 0.0 | 0.0 | 0.00 | 0.07 | 0.00 | 83 | 1006.3 | |
| 20260507052500 | 57 | 0.0 | 0.0 | 0.00 | 0.07 | 0.00 | 84 | 1006.3 | |
| 20260507052000 | 57 | 0.0 | 0.0 | 0.00 | 0.07 | 0.00 | 85 | 1006.3 | |
| 20260507051500 | 57 | 0.0 | 0.0 | 0.00 | 0.07 | 0.00 | 85 | 1006.0 | |
| 20260507051000 | 58 | 0.0 | 0.0 | 0.00 | 0.07 | 0.00 | 83 | 1005.9 | |
| 20260507045500 | 58 | 0.0 | 0.0 | 0.00 | 0.07 | 0.00 | 84 | 1005.9 | |
| 20260507045000 | 58 | 0.0 | 0.0 | 0.00 | 0.07 | 0.00 | 84 | 1006.2 | |
| 20260507044500 | 58 | 0.0 | 0.0 | 0.00 | 0.07 | 0.00 | 84 | 1006.2 | |
| 20260507043500 | 59 | 0.0 | 0.0 | 0.00 | 0.07 | 0.00 | 87 | 1006.0 | |
| 20260507043000 | 59 | 0.0 | 0.0 | 0.00 | 0.07 | 0.00 | 87 | 1006.0 | |
| 20260507042500 | 59 | 0.0 | 0.0 | 0.00 | 0.07 | 0.00 | 90 | 1006.0 | |
| 20260507042000 | 60 | 0.0 | 0.0 | 0.00 | 0.07 | 0.00 | 91 | 1006.1 | |
| 20260507041500 | 60 | 0.0 | 0.0 | 0.00 | 0.07 | 0.00 | 91 | 1006.0 | |
| 20260507041000 | 60 | 0.0 | 0.0 | 0.00 | 0.07 | 0.00 | 91 | 1006.0 | |
| 20260507040500 | 60 | 0.0 | 0.0 | 0.00 | 0.07 | 0.00 | 91 | 1006.0 | |
| 20260507035500 | 60 | 0.0 | 0.0 | 0.00 | 0.07 | 0.07 | 91 | 1006.3 | |
| 20260507035000 | 60 | 0.0 | 0.0 | 0.00 | 0.07 | 0.07 | 91 | 1006.6 | |
| 20260507034500 | 60 | 0.0 | 0.0 | 0.00 | 0.07 | 0.07 | 91 | 1006.2 | |
| 20260507034000 | 60 | 0.0 | 0.0 | 0.00 | 0.07 | 0.07 | 92 | 1006.1 | |
| 20260507033500 | 59 | 0.0 | 0.0 | 0.00 | 0.07 | 0.07 | 92 | 1006.0 | |
| 20260507033000 | 59 | 0.0 | 0.0 | 0.00 | 0.07 | 0.07 | 92 | 1006.0 | |
| 20260507032500 | 59 | 0.0 | 0.0 | 0.00 | 0.07 | 0.07 | 92 | 1005.8 | |
| 20260507032000 | 59 | 0.0 | 0.0 | 0.00 | 0.07 | 0.07 | 92 | 1005.9 | |
| 20260507031500 | 59 | 0.0 | 0.0 | 0.00 | 0.07 | 0.07 | 91 | 1005.5 | |
| 20260507031000 | 59 | 0.0 | 0.0 | 0.00 | 0.07 | 0.07 | 91 | 1005.6 | |
| 20260507030000 | 59 | 0.0 | 0.0 | 0.00 | 0.07 | 0.07 | 91 | 1005.6 | |
| 20260507025500 | 0 | 0.0 | 0.0 | 0.00 | 0.00 | 0.00 | |||
| 20260507025000 | 59 | 0.0 | 0.0 | 0.00 | 0.07 | 0.07 | 91 | 1005.2 | |
| 20260507024500 | 59 | 0.0 | 0.0 | 0.00 | 0.07 | 0.07 | 91 | 1005.2 | |
| 20260507024000 | 59 | 0.0 | 0.0 | 0.00 | 0.07 | 0.07 | 91 | 1005.6 | |
| 20260507023500 | 59 | 0.0 | 0.0 | 0.00 | 0.07 | 0.07 | 91 | 1005.6 | |
| 20260507023000 | 59 | 0.0 | 0.0 | 0.00 | 0.07 | 0.07 | 91 | 1005.6 | |
| 20260507022500 | 59 | 0.0 | 0.0 | 0.00 | 0.07 | 0.07 | 91 | 1005.6 | |
| 20260507022000 | 59 | 0.0 | 0.0 | 0.00 | 0.07 | 0.07 | 91 | 1005.6 | |
| 20260507021500 | 59 | 0.0 | 0.0 | 0.00 | 0.07 | 0.07 | 91 | 1005.5 | |
| 20260507021000 | 59 | 0.0 | 0.0 | 0.00 | 0.07 | 0.07 | 91 | 1005.4 | |
| 20260507020500 | 59 | 0.0 | 0.0 | 0.00 | 0.07 | 0.07 | 91 | 1005.6 | |
| 20260507020000 | 59 | 0.0 | 0.0 | 0.00 | 0.07 | 0.07 | 91 | 1005.6 | |
| 20260507014500 | 59 | 0.0 | 0.0 | 0.00 | 0.07 | 0.07 | 91 | 1005.6 | |
| 20260507014000 | 59 | 0.0 | 0.0 | 0.00 | 0.07 | 0.07 | 92 | 1005.5 | |
| 20260507013500 | 59 | 0.0 | 0.0 | 0.00 | 0.07 | 0.07 | 92 | 1005.6 | |
| 20260507013000 | 59 | 0.0 | 0.0 | 0.00 | 0.07 | 0.07 | 92 | 1005.9 | |
| 20260507012500 | 59 | 0.0 | 0.0 | 0.00 | 0.07 | 0.07 | 92 | 1005.7 | |
| 20260507012000 | 59 | 0.0 | 0.0 | 0.00 | 0.07 | 0.07 | 91 | 1006.0 | |
| 20260507010500 | 58 | 0.0 | 0.0 | 0.00 | 0.07 | 0.07 | 92 | 1006.1 | |
| 20260507010000 | 58 | 0.0 | 0.0 | 0.00 | 0.07 | 0.07 | 92 | 1006.1 | |
| 20260507005500 | 58 | 0.0 | 0.0 | 0.00 | 0.07 | 0.07 | 92 | 1006.1 | |
| 20260507005000 | 58 | 0.0 | 0.0 | 0.00 | 0.07 | 0.07 | 92 | 1006.2 | |
| 20260507004500 | 58 | 0.0 | 0.0 | 0.00 | 0.07 | 0.07 | 92 | 1006.1 | |
| 20260507004000 | 58 | 0.0 | 0.0 | 0.00 | 0.07 | 0.07 | 92 | 1006.1 | |
| 20260507003500 | 58 | 0.0 | 0.0 | 0.01 | 0.07 | 0.07 | 91 | 1006.0 | |
| 20260507003000 | 58 | 0.0 | 0.0 | 0.01 | 0.07 | 0.07 | 92 | 1005.9 | |
| 20260507002000 | 58 | 0.0 | 0.0 | 0.01 | 0.07 | 0.07 | 92 | 1006.1 | |
| 20260507001500 | 58 | 0.0 | 0.0 | 0.02 | 0.07 | 0.07 | 91 | 1005.9 | |
| 20260507000500 | 58 | 0.0 | 0.0 | 0.02 | 0.07 | 0.07 | 91 | 1005.6 | |
| 20260507000000 | 59 | 0.0 | 0.0 | 0.02 | 0.07 | 0.07 | 91 | 1005.5 | |
| 20260506235500 | 59 | 0.0 | 0.0 | 0.02 | 0.07 | 0.07 | 91 | 1005.5 | |
| 20260506235000 | 59 | 0.0 | 0.0 | 0.02 | 0.07 | 0.07 | 91 | 1005.6 | |
| 20260506234500 | 59 | 0.0 | 0.0 | 0.02 | 0.07 | 0.07 | 91 | 1005.7 | |
| 20260506234000 | 59 | 0.0 | 0.0 | 0.02 | 0.06 | 0.06 | 91 | 1005.7 | |
| 20260506233000 | 59 | 0.0 | 0.0 | 0.01 | 0.06 | 0.06 | 90 | 1005.6 | |
| 20260506232500 | 59 | 0.0 | 0.0 | 0.01 | 0.06 | 0.06 | 90 | 1005.5 | |
| 20260506232000 | 60 | 0.0 | 0.0 | 0.01 | 0.06 | 0.06 | 90 | 1005.6 | |
| 20260506231500 | 60 | 0.0 | 0.0 | 0.01 | 0.05 | 0.05 | 89 | 1005.5 | |
| 20260506231000 | 60 | 0.0 | 0.0 | 0.00 | 0.05 | 0.05 | 89 | 1005.6 | |
| 20260506230500 | 60 | 0.0 | 0.0 | 0.00 | 0.04 | 0.04 | 89 | 1005.7 | |
| 20260506230000 | 60 | 0.0 | 0.0 | 0.00 | 0.04 | 0.04 | 88 | 1005.5 | |
| 20260506225500 | 60 | 0.0 | 0.0 | 0.00 | 0.04 | 0.04 | 88 | 1005.6 | |
| 20260506225000 | 60 | 0.0 | 0.0 | 0.00 | 0.04 | 0.04 | 88 | 1005.7 | |
| 20260506224500 | 60 | 0.0 | 0.0 | 0.00 | 0.04 | 0.04 | 89 | 1005.7 | |
| 20260506224000 | 60 | 0.0 | 0.0 | 0.00 | 0.04 | 0.04 | 88 | 1005.7 | |
| 20260506223500 | 60 | 0.0 | 0.0 | 0.01 | 0.04 | 0.04 | 89 | 1005.9 | |
| 20260506223000 | 60 | 0.0 | 0.0 | 0.01 | 0.04 | 0.04 | 89 | 1005.8 | |
| 20260506222500 | 60 | 0.0 | 0.0 | 0.01 | 0.04 | 0.04 | 89 | 1005.9 | |
| 20260506222000 | 60 | 0.0 | 0.0 | 0.01 | 0.04 | 0.04 | 88 | 1006.0 | |
| 20260506221500 | 60 | 0.0 | 0.0 | 0.01 | 0.04 | 0.04 | 88 | 1005.9 | |
| 20260506221000 | 60 | 0.0 | 0.0 | 0.01 | 0.04 | 0.04 | 88 | 1006.3 | |
| 20260506220500 | 60 | 0.0 | 0.0 | 0.01 | 0.04 | 0.04 | 89 | 1006.3 | |
| 20260506220000 | 60 | 0.0 | 0.0 | 0.01 | 0.04 | 0.04 | 89 | 1006.2 | |
| 20260506215000 | 60 | 0.0 | 0.0 | 0.00 | 0.04 | 0.04 | 88 | 1006.3 | |
| 20260506214500 | 61 | 0.0 | 0.0 | 0.00 | 0.04 | 0.04 | 87 | 1006.4 | |
| 20260506213500 | 61 | 0.0 | 0.0 | 0.00 | 0.04 | 0.04 | 86 | 1006.5 | |
| 20260506213000 | 61 | 0.0 | 0.0 | 0.00 | 0.04 | 0.04 | 85 | 1006.5 | |
| 20260506212500 | 61 | 0.0 | 0.0 | 0.00 | 0.04 | 0.04 | 84 | 1006.6 | |
| 20260506212000 | 61 | 0.0 | 0.0 | 0.00 | 0.04 | 0.04 | 84 | 1006.3 | |
| 20260506211500 | 61 | 0.0 | 0.0 | 0.00 | 0.04 | 0.04 | 84 | 1006.4 | |
| 20260506211000 | 61 | 0.0 | 0.0 | 0.00 | 0.04 | 0.04 | 84 | 1006.5 | |
| 20260506210500 | 61 | 0.0 | 0.0 | 0.00 | 0.04 | 0.04 | 84 | 1006.6 | |
| 20260506210000 | 61 | 0.0 | 0.0 | 0.00 | 0.04 | 0.04 | 84 | 1006.6 | |
| 20260506205000 | 61 | 0.0 | 0.0 | 0.00 | 0.04 | 0.04 | 83 | 1006.4 | |
| 20260506204500 | 62 | 0.0 | 0.0 | 0.01 | 0.04 | 0.04 | 83 | 1006.5 | |
| 20260506204000 | 62 | 0.0 | 0.0 | 0.01 | 0.04 | 0.04 | 83 | 1006.7 | |
| 20260506203500 | 62 | 0.0 | 0.0 | 0.01 | 0.04 | 0.04 | 82 | 1006.9 | |
| 20260506203000 | 62 | 0.0 | 0.0 | 0.01 | 0.03 | 0.03 | 83 | 1006.7 | |
| 20260506202500 | 62 | 0.0 | 0.0 | 0.02 | 0.03 | 0.03 | 83 | 1007.0 | |
| 20260506202000 | 62 | 0.0 | 0.0 | 0.02 | 0.03 | 0.03 | 82 | 1006.8 | |
| 20260506201500 | 62 | 0.0 | 0.0 | 0.02 | 0.03 | 0.03 | 82 | 1006.5 | |
| 20260506201000 | 62 | 0.0 | 0.0 | 0.03 | 0.03 | 0.03 | 81 | 1006.9 | |
| 20260506200500 | 63 | 0.0 | 0.0 | 0.03 | 0.03 | 0.03 | 81 | 1006.5 | |
| 20260506200000 | 63 | 0.0 | 0.0 | 0.03 | 0.03 | 0.03 | 81 | 1006.5 | |
| 20260506195500 | 63 | 0.0 | 0.0 | 0.03 | 0.03 | 0.03 | 80 | 1006.4 | |
| 20260506195000 | 64 | 0.0 | 0.0 | 0.03 | 0.03 | 0.03 | 80 | 1006.6 | |
| 20260506194500 | 64 | 0.0 | 0.0 | 0.03 | 0.03 | 0.03 | 79 | 1006.5 | |
| 20260506194000 | 64 | 0.0 | 0.0 | 0.02 | 0.02 | 0.02 | 78 | 1006.6 | |
| 20260506193000 | 64 | 0.0 | 0.0 | 0.02 | 0.02 | 0.02 | 77 | 1006.9 | |
| 20260506192500 | 65 | 0.0 | 0.0 | 0.02 | 0.02 | 0.02 | 77 | 1006.8 | |
| 20260506191500 | 66 | 0.0 | 0.0 | 0.01 | 0.01 | 0.01 | 71 | 1006.8 |